DW0489 Weather Reports


time (UTC)temp
F
wind
direction
speed
knots
gust
knots
rain 1hr
in
rain 24hr
in
rain mn
in
humidity
%
barometer
mb
20260905201512 78 20 1.7 6.1 0.00 0.00 0.00 58 1010.6
20260905200012 79 52 4.3 8.7 0.00 0.00 0.00 60 1010.5
20260905194533 79 56 4.3 7.8 0.00 0.00 0.00 61 1010.4
20260905193031 77 309 2.6 7.8 0.00 0.00 0.00 60 1010.6
20260905191527 79 351 0.9 9.6 0.00 0.00 0.00 60 1010.6
20260905190026 78 9 1.7 7.8 0.00 0.00 0.00 63 1010.6
20260905184520 76 16 4.3 8.7 0.00 0.00 0.00 62 1010.8
20260905183017 77 296 3.5 7.0 0.00 0.00 0.00 63 1010.6
20260905181512 77 330 2.6 7.0 0.00 0.00 0.00 62 1010.9
20260905180030 77 309 0.9 7.0 0.00 0.00 0.00 65 1010.9
20260905174533 76 284 4.3 11.3 0.00 0.00 0.00 63 1011.1
20260905173032 76 299 1.7 7.8 0.00 0.00 0.00 64 1011.1
20260905171539 76 317 3.5 7.8 0.00 0.00 0.00 65 1011.2
20260905170029 75 304 0.9 6.1 0.00 0.00 0.00 67 1011.3
20260905164519 76 309 3.5 8.7 0.00 0.00 0.00 67 1011.2
20260905163018 76 305 3.5 8.7 0.00 0.00 0.00 65 1011.3
20260905161538 76 339 2.6 8.7 0.00 0.00 0.00 67 1011.2
20260905160043 75 48 3.5 7.8 0.00 0.00 0.00 65 1011.2
20260905154546 75 62 3.5 9.6 0.00 0.00 0.00 67 1011.2
20260905153029 74 72 4.3 9.6 0.00 0.00 0.00 70 1011.4
20260905151525 72 329 1.7 8.7 0.00 0.00 0.00 74 1011.3
20260905150020 72 78 0.9 8.7 0.00 0.00 0.00 72 1011.3
20260905144543 72 66 3.5 10.4 0.00 0.00 0.00 73 1011.4
20260905143034 71 8 5.2 8.7 0.00 0.00 0.00 75 1011.2
20260905141532 71 301 4.3 7.8 0.00 0.00 0.00 76 1011.1
20260905140035 71 326 3.5 7.8 0.00 0.00 0.00 78 1011.2
20260905134503 70 311 3.5 9.6 0.00 0.00 0.00 79 1011.2
20260905133009 70 289 2.6 8.7 0.00 0.00 0.00 79 1011.3
20260905131509 70 40 1.7 10.4 0.00 0.00 0.00 80 1011.3
20260905130015 69 320 4.3 9.6 0.00 0.00 0.00 81 1011.5
20260905124511 69 352 3.5 7.8 0.00 0.00 0.00 82 1011.6
20260905123008 68 22 0.0 3.5 0.00 0.00 0.00 83 1011.6
20260905121508 68 324 0.9 6.1 0.00 0.00 0.00 83 1011.6
20260905120004 67 352 0.0 7.0 0.00 0.00 0.00 86 1011.6
20260905114509 65 258 0.0 1.7 0.00 0.00 0.00 88 1011.4
20260905113008 64 297 1.7 5.2 0.00 0.00 0.00 90 1011.2
20260905111510 63 304 0.9 3.5 0.00 0.00 0.00 90 1011.1
20260905110007 63 226 0.0 1.7 0.00 0.00 0.00 89 1011.0
20260905104512 64 245 0.9 1.7 0.00 0.00 0.00 87 1010.9
20260905103008 65 209 0.0 2.6 0.00 0.00 0.00 84 1010.8
20260905101512 66 359 0.0 3.5 0.00 0.00 0.00 83 1010.4
20260905100011 66 316 0.9 7.0 0.00 0.00 0.00 82 1010.4
20260905094510 66 278 1.7 7.8 0.00 0.00 0.00 82 1010.3
20260905093012 66 283 2.6 7.0 0.00 0.00 0.00 82 1010.3
20260905091510 66 318 0.9 6.1 0.00 0.00 0.00 81 1010.3
20260905090019 66 325 2.6 5.2 0.00 0.00 0.00 81 1010.3
20260905084512 67 316 0.9 3.5 0.00 0.00 0.00 80 1010.3
20260905083014 67 308 1.7 6.1 0.00 0.01 0.00 79 1010.4
20260905081512 67 330 2.6 9.6 0.00 0.01 0.00 78 1010.4
20260905080027 68 300 2.6 7.0 0.00 0.02 0.00 78 1010.4
20260905074516 68 330 0.9 7.0 0.00 0.05 0.00 77 1010.4
20260905073032 68 4 2.6 7.0 0.00 0.11 0.00 76 1010.4
20260905071515 68 259 4.3 7.8 0.00 0.34 0.00 76 1010.4
20260905070013 69 327 3.5 7.8 0.00 0.35 0.00 75 1010.6
20260905064515 69 39 2.6 7.8 0.00 0.35 0.00 76 1010.7
20260905063018 69 344 2.6 10.4 0.00 0.35 0.00 76 1010.7
20260905061515 69 299 3.5 7.0 0.00 0.35 0.00 76 1010.8
20260905060018 69 360 3.5 8.7 0.00 0.35 0.00 75 1011.0
20260905054515 70 349 1.7 7.0 0.00 0.35 0.00 74 1011.2
20260905053021 70 57 5.2 7.8 0.00 0.35 0.00 74 1011.3
20260905051514 70 278 4.3 12.2 0.00 0.35 0.00 74 1011.4
20260905050015 68 301 2.6 7.0 0.00 0.35 0.00 77 1011.4
20260905044522 66 359 1.7 3.5 0.00 0.35 0.00 85 1011.7
20260905043015 65 311 1.7 3.5 0.00 0.35 0.00 91 1011.7
20260905041516 65 289 0.9 1.7 0.00 0.35 0.00 92 1011.7
20260905040020 66 299 0.0 1.7 0.00 0.35 0.00 92 1011.8
20260905034526 66 289 1.7 2.6 0.00 0.35 0.35 92 1011.8
20260905033017 66 300 0.9 1.7 0.00 0.35 0.35 92 1011.7
20260905031518 66 300 0.0 1.7 0.00 0.35 0.35 92 1011.6
20260905030020 66 270 0.0 1.7 0.00 0.35 0.35 92 1011.7
20260905024516 67 270 0.0 0.0 0.00 0.35 0.35 91 1011.6
20260905023026 67 270 0.0 0.0 0.00 0.35 0.35 92 1011.6
20260905021528 67 270 0.0 2.6 0.00 0.35 0.35 91 1011.6
20260905020035 68 297 0.0 0.9 0.00 0.35 0.35 91 1011.6
20260905014534 68 297 0.9 2.6 0.00 0.35 0.35 91 1011.6
20260905013030 69 297 0.0 0.0 0.00 0.35 0.35 91 1011.7
20260905011532 69 297 0.0 1.7 0.00 0.35 0.35 91 1011.7
20260905010031 69 297 0.9 1.7 0.00 0.35 0.35 90 1011.6
20260905004525 70 297 0.0 1.7 0.00 0.35 0.35 90 1011.7
20260905003024 70 297 1.7 2.6 0.00 0.35 0.35 90 1011.5
20260905001536 70 303 1.7 3.5 0.00 0.35 0.35 90 1011.5
20260905000037 71 296 1.7 2.6 0.00 0.35 0.35 89 1011.4
20260904234542 71 291 1.7 1.7 0.00 0.35 0.35 88 1011.4
20260904233029 72 291 0.9 1.7 0.00 0.35 0.35 86 1011.1
20260904231530 73 291 0.0 1.7 0.00 0.35 0.35 83 1011.2
20260904230027 74 291 0.0 1.7 0.00 0.35 0.35 81 1011.3
20260904224539 76 291 0.0 0.0 0.00 0.35 0.35 77 1011.2
20260904223017 78 307 0.0 1.7 0.00 0.35 0.35 72 1011.1
20260904221520 79 353 0.0 2.6 0.00 0.35 0.35 66 1011.1
20260904220013 80 39 0.0 1.7 0.00 0.35 0.35 66 1011.0
20260904214513 80 303 0.0 3.5 0.00 0.35 0.35 64 1011.0
20260904213024 80 1 0.9 2.6 0.00 0.35 0.35 65 1011.0
20260904211527 81 334 0.9 1.7 0.00 0.35 0.35 64 1011.0
20260904210038 81 303 0.0 2.6 0.00 0.35 0.35 60 1011.1
20260904204519 82 306 0.9 5.2 0.00 0.35 0.35 60 1011.2
20260904203024 83 288 3.5 7.0 0.00 0.35 0.35 58 1011.2